Location: Newark
(30.0333°N, 31.2167°E)
Time: 04:42:25
(UTC+00:00)

Tiros 1 despin weight - Pass Details

Date: 28 January 2020
Orbit: 594 x 642 km, 48.2° (Epoch: 19 February)

Event Time Altitude Azimuth Distance (km) Brightness Sun altitude
Rises 08:48:53 0° 276° (W) 2,844 ? 38.1°
Reaches altitude 10° 08:51:59 10° 298° (WNW) 1,953 ? 38.3°
Maximum altitude 08:54:43 16° 336° (NNW) 1,620 ? 38.6°
Drops below altitude 10° 08:57:29 10° 14° (NNE) 1,974 ? 38.8°
Sets 09:00:39 0° 36° (NE) 2,892 ? 39.0°
